Caldwell, NJ

2:13 PM EDT on May 26, 2017 (GMT -0400)
Essex County

Weather History for KCDW - December, 2013

Change the Weather History Date:

Thursday, December 5, 2013

  Actual Average Record
Temperature  
Mean Temperature 48 °F -  
Max Temperature 53 °F 44 °F 69 °F (1982)
Min Temperature 44 °F 26 °F 12 °F (1976)
Degree Days  
Heating Degree Days 16    
Moisture  
Dew Point 47 °F    
Average Humidity 93    
Maximum Humidity 100    
Minimum Humidity 76    
Precipitation  
Precipitation 0.00 in - - ()
Sea Level Pressure  
Sea Level Pressure 30.05 in    
Wind  
Wind Speed 1 mph (NE)    
Max Wind Speed 4 mph    
Max Gust Speed -    
Visibility 1 miles    
Events Fog , Rain    
Averages and records for this station are not official NWS values.
T = Trace of Precipitation, MM = Missing Value Source: NWS Daily Summary

Daily Weather History Graph

Daily Weather History Graph

Search for Another Location

Airport or City:

Trip Planner

Search our weather history database for the weather conditions in past years. The results will help you decide how hot, cold, wet, or windy it might be!

Date:

Astronomy

Dec. 05, 2013 Rise Set
Actual Time 7:06 AM EST 4:29 PM EST
Civil Twilight 6:35 AM EST 4:59 PM EST
Nautical Twilight 6:01 AM EST 5:34 PM EST
Astronomical Twilight 5:28 AM EST 6:07 PM EST
Moon 9:23 AM EST (12/5) 7:47 PM EST (12/5)
Length of Visible Light 10h 24m
Length of Day
9h 22m
Waxing Crescent, 10% of the Moon is Illuminated
Dec 5
Waxing Crescent
Dec 9
First Quarter
Dec 17
Full
Dec 25
Last Quarter
Jan 1
New

Hourly Weather History & Observations

Time (EST) Temp. Windchill Dew Point Humidity Pressure Visibility Wind Dir Wind Speed Gust Speed Precip Events Conditions
12:53 AM 46.0 °F 44.8 °F 39.0 °F 76% 30.14 in 6.0 mi ENE 3.5 mph - N/A   Haze
1:09 AM 46.4 °F - 39.2 °F 76% 30.12 in 6.0 mi Calm Calm - N/A   Haze
1:53 AM 46.0 °F - 39.9 °F 79% 30.14 in 5.0 mi Calm Calm - N/A   Haze
2:19 AM 44.6 °F - 41.0 °F 87% 30.13 in 2.5 mi Calm Calm - 0.00 in Rain Light Rain
2:33 AM 44.6 °F - 42.8 °F 93% 30.13 in 1.8 mi Calm Calm - 0.00 in Rain Light Rain
2:53 AM 45.0 °F - 42.1 °F 90% 30.15 in 1.8 mi Calm Calm - 0.00 in Rain Light Rain
3:27 AM 44.6 °F - 42.8 °F 93% 30.12 in 1.2 mi Calm Calm - 0.00 in   Overcast
3:53 AM 45.0 °F - 42.1 °F 90% 30.13 in 0.8 mi Calm Calm - 0.00 in   Overcast
4:00 AM 44.6 °F - 42.8 °F 93% 30.12 in 1.0 mi Calm Calm - N/A   Overcast
4:21 AM 44.6 °F - 42.8 °F 93% 30.11 in 1.2 mi Calm Calm - N/A   Overcast
4:53 AM 45.0 °F - 43.0 °F 93% 30.12 in 1.2 mi Calm Calm - N/A   Overcast
5:53 AM 45.0 °F - 43.0 °F 93% 30.11 in 1.2 mi Calm Calm - 0.00 in   Overcast
6:53 AM 45.0 °F - 44.1 °F 97% 30.11 in 1.2 mi Calm Calm - N/A   Overcast
7:18 AM 44.6 °F - 44.6 °F 100% 30.09 in 0.8 mi Calm Calm - N/A   Overcast
7:44 AM 46.4 °F - 44.6 °F 93% 30.10 in 0.2 mi Calm Calm - N/A Fog Fog
7:53 AM 46.0 °F 44.8 °F 44.1 °F 93% 30.12 in 0.2 mi NE 3.5 mph - N/A Fog Fog
8:53 AM 46.0 °F - 45.0 °F 96% 30.11 in 0.2 mi Calm Calm - N/A Fog Fog
9:53 AM 48.0 °F - 46.9 °F 96% 30.11 in 0.2 mi Calm Calm - N/A Fog Fog
10:53 AM 48.0 °F - 46.9 °F 96% 30.11 in 0.2 mi Calm Calm - N/A Fog Fog
11:53 AM 48.9 °F - 46.9 °F 93% 30.06 in 0.2 mi Calm Calm - N/A Fog Fog
12:02 PM 48.2 °F - 48.2 °F 100% 30.03 in 0.5 mi Calm Calm - N/A Fog Fog
12:36 PM 50.0 °F - 48.2 °F 94% 30.02 in 1.0 mi Calm Calm - N/A   Overcast
12:53 PM 50.0 °F - 48.0 °F 93% 30.04 in 1.2 mi Calm Calm - N/A   Overcast
1:44 PM 50.0 °F - 48.2 °F 94% 30.00 in 1.2 mi Calm Calm - N/A   Overcast
1:53 PM 51.1 °F - 48.9 °F 92% 30.02 in 1.5 mi Calm Calm - N/A   Overcast
2:53 PM 52.0 °F - 48.9 °F 89% 30.02 in 1.5 mi Calm Calm - N/A   Overcast
2:59 PM 51.8 °F - 48.2 °F 88% 30.00 in 1.2 mi Calm Calm - N/A   Overcast
3:30 PM 51.8 °F - 50.0 °F 94% 30.00 in 0.8 mi Calm Calm - N/A   Overcast
3:53 PM 52.0 °F - 50.0 °F 93% 30.01 in 0.8 mi Calm Calm - N/A   Overcast
4:42 PM 51.8 °F - 50.0 °F 94% 29.99 in 1.2 mi Calm Calm - N/A   Overcast
4:53 PM 51.1 °F - 50.0 °F 96% 30.02 in 1.5 mi Calm Calm - N/A   Overcast
5:22 PM 51.8 °F - 50.0 °F 94% 30.02 in 2.0 mi Calm Calm - N/A   Overcast
5:31 PM 51.8 °F - 50.0 °F 94% 30.01 in 1.8 mi Calm Calm - N/A   Overcast
5:53 PM 52.0 °F - 50.0 °F 93% 30.04 in 1.8 mi Calm Calm - N/A   Overcast
6:00 PM 51.8 °F - 50.0 °F 94% 30.02 in 1.8 mi Calm Calm - N/A   Overcast
6:17 PM 51.8 °F - 50.0 °F 94% 30.02 in 0.8 mi Calm Calm - N/A   Overcast
6:27 PM 51.8 °F - 50.0 °F 94% 30.01 in 1.0 mi Calm Calm - N/A   Overcast
6:53 PM 52.0 °F - 50.0 °F 93% 30.01 in 1.5 mi Calm Calm - N/A   Overcast
7:25 PM 53.6 °F - 51.8 °F 94% 29.99 in 2.0 mi Calm Calm - N/A   Overcast
7:53 PM 53.1 °F - 52.0 °F 96% 30.01 in 2.5 mi Calm Calm - N/A   Overcast
8:07 PM 53.6 °F - 51.8 °F 94% 29.99 in 1.8 mi Calm Calm - N/A   Overcast
8:53 PM 53.1 °F - 51.1 °F 93% 30.00 in 0.5 mi Calm Calm - N/A Fog Fog
9:19 PM 51.8 °F - 51.8 °F 100% 29.98 in 0.5 mi Calm Calm - N/A Fog Fog
9:48 PM 51.8 °F - 51.8 °F 100% 29.96 in 0.2 mi Calm Calm - N/A Fog Fog
9:53 PM 52.0 °F - 51.1 °F 97% 29.98 in 0.2 mi Calm Calm - N/A Fog Fog
10:53 PM 52.0 °F - 51.1 °F 97% 29.97 in 0.2 mi Calm Calm - N/A Fog Fog
11:53 PM 52.0 °F - 51.1 °F 97% 29.97 in 0.2 mi Calm Calm - N/A Fog Fog